Flag for Germany Weather past 2 weeks in Springe, Lower Saxony, Germany

Now
73 °F

Scattered clouds.


Feels Like: 77 °F
Forecast: 60 / 72 °F
Wind: 9 mph from South

Location: Wunstorf Airport

Current Time: Aug 28, 2014 at 5:32:09 PM

Latest Report: Aug 28, 2014 at 4:20 PM


Visibility: N/A

Pressure: 29.98 "Hg

Humidity: 50%

Dew point: 54 °F

Location of SpringeLocation

Historic Weather in Springe — Graph

°F

Springe temperature yesterday

Maximum temperature yesterday: 70 °F (at 3:20 PM)
Minimum temperature yesterday: 46 °F (at 5:20 AM)
Average temperature yesterday: 57 °F

Past Weeks' High & Low Weather Summary

 TemperatureHumidityPressure
High75 °F (Aug 28, 3:20 PM)100% (Aug 25, 6:51 AM)30.04 "Hg (Aug 25, 6:51 AM)
Low45 °F (Aug 25, 5:49 AM)40% (Aug 27, 6:20 PM)29.59 "Hg (Aug 18, 6:20 AM)
Average59 °F73%29.87 "Hg
* Reported Aug 13 4:20 PM — Aug 28 4:20 PM, Springe, Weather by CustomWeather, © 2014

Note: Actual official high and low records may vary slightly from our data, if they occured in-between our weather recording intervals... More about our weather records

Advertising

Springe weather history for previous 24 hours

 ConditionsComfort  
Time TempWeatherWind HumidityBarometerVisibility
4:20 PM
Aug 28
73 °FScattered clouds.9 mph50%29.98 "HgN/A
3:20 PM75 °FPassing clouds.8 mph47%29.98 "HgN/A
2:20 PM73 °FPassing clouds.10 mph47%30.01 "HgN/A
1:20 PM72 °FPassing clouds.7 mph50%30.01 "HgN/A
12:20 PM70 °FPassing clouds.9 mph46%30.01 "HgN/A
11:20 AM70 °FPassing clouds.8 mph46%30.04 "HgN/A
10:20 AM66 °FPassing clouds.6 mph60%30.04 "HgN/A
9:20 AM59 °FPassing clouds.3 mph72%30.04 "HgN/A
8:20 AM52 °FPassing clouds.3 mph82%30.04 "HgN/A
7:20 AM45 °FPassing clouds.2 mph100%30.04 "HgN/A
6:20 AM45 °FFog.No wind93%30.04 "HgN/A
5:20 AM45 °FQuite cool.No wind100%30.04 "HgN/A
4:20 AM46 °FCool.2 mph93%30.04 "HgN/A
3:20 AM48 °FCool.2 mph94%30.04 "HgN/A
2:20 AM48 °FCool.1 mph94%30.04 "HgN/A
1:20 AM48 °FCool.3 mph94%30.04 "HgN/A
12:20 AM50 °FCool.3 mph94%30.04 "HgN/A
11:20 PM
Aug 27
52 °FPassing clouds.1 mph82%30.04 "HgN/A
10:20 PM54 °FPassing clouds.2 mph77%30.04 "HgN/A
9:20 PM57 °FPassing clouds.No wind72%30.04 "HgN/A
8:20 PM63 °FPassing clouds.1 mph56%30.04 "HgN/A
7:20 PM68 °FPassing clouds.3 mph43%30.01 "HgN/A
6:20 PM70 °FPassing clouds.2 mph40%30.01 "HgN/A
5:20 PM70 °FPassing clouds.6 mph43%30.01 "HgN/A
Weather by CustomWeather, © 2014

See weather overviewHow to use our weather pages